| time (UTC) | temp C | wind direction | speed KPH | gust KPH | rain 1hr cm | rain 24hr cm | rain mn cm | humidity % | barometer mb |
| 20260510000020 | 11 | 258 | 8.0 | 14.5 | 0.38 | 0.48 | 0.48 | 89 | 1005.5 |
| 20260509234520 | 11 | 254 | 1.6 | 11.3 | 0.43 | 0.43 | 0.43 | 89 | 1005.8 |
| 20260509233011 | 11 | 72 | 4.8 | 17.7 | 0.33 | 0.33 | 0.33 | 87 | 1006.4 |
| 20260509231525 | 11 | 15 | 8.0 | 30.6 | 0.18 | 0.18 | 0.18 | 84 | 1006.3 |
| 20260509230026 | 13 | 296 | 12.9 | 29.0 | 0.10 | 0.10 | 0.10 | 77 | 1005.4 |
| 20260509224522 | 15 | 319 | 3.2 | 16.1 | 0.00 | 0.00 | 0.00 | 73 | 1004.0 |
| 20260509223021 | 16 | 281 | 0.0 | 3.2 | 0.00 | 0.00 | 0.00 | 70 | 1003.7 |
| 20260509221523 | 16 | 281 | 0.0 | 3.2 | 0.00 | 0.00 | 0.00 | 69 | 1003.4 |
| 20260509220017 | 16 | 281 | 1.6 | 3.2 | 0.00 | 0.00 | 0.00 | 68 | 1003.6 |
| 20260509214507 | 16 | 281 | 1.6 | 4.8 | 0.00 | 0.00 | 0.00 | 67 | 1003.8 |
| 20260509213006 | 16 | 258 | 1.6 | 4.8 | 0.00 | 0.00 | 0.00 | 68 | 1003.8 |
| 20260509211504 | 16 | 313 | 1.6 | 6.4 | 0.00 | 0.00 | 0.00 | 67 | 1004.2 |
| 20260509210015 | 16 | 269 | 1.6 | 6.4 | 0.00 | 0.00 | 0.00 | 67 | 1004.1 |
| 20260509204508 | 17 | 324 | 3.2 | 12.9 | 0.00 | 0.00 | 0.00 | 68 | 1004.1 |
| 20260509203007 | 16 | 266 | 1.6 | 11.3 | 0.00 | 0.00 | 0.00 | 69 | 1004.2 |
| 20260509201507 | 17 | 260 | 4.8 | 12.9 | 0.00 | 0.00 | 0.00 | 64 | 1004.4 |
| 20260509200007 | 18 | 266 | 4.8 | 12.9 | 0.00 | 0.00 | 0.00 | 62 | 1004.4 |
| 20260509194508 | 18 | 281 | 3.2 | 11.3 | 0.00 | 0.00 | 0.00 | 62 | 1004.4 |
| 20260509193008 | 18 | 251 | 4.8 | 17.7 | 0.00 | 0.00 | 0.00 | 63 | 1004.8 |
| 20260509191524 | 18 | 275 | 4.8 | 14.5 | 0.00 | 0.00 | 0.00 | 60 | 1005.0 |
| 20260509190024 | 18 | 336 | 4.8 | 14.5 | 0.00 | 0.00 | 0.00 | 63 | 1005.1 |
| 20260509184533 | 18 | 338 | 9.7 | 19.3 | 0.00 | 0.00 | 0.00 | 61 | 1005.4 |
| 20260509183019 | 18 | 325 | 8.0 | 19.3 | 0.00 | 0.00 | 0.00 | 65 | 1005.2 |
| 20260509181529 | 18 | 327 | 8.0 | 17.7 | 0.00 | 0.00 | 0.00 | 64 | 1005.4 |
| 20260509180013 | 18 | 240 | 6.4 | 19.3 | 0.00 | 0.00 | 0.00 | 64 | 1005.6 |
| 20260509174514 | 18 | 271 | 4.8 | 16.1 | 0.00 | 0.00 | 0.00 | 65 | 1006.0 |
| 20260509173025 | 18 | 319 | 8.0 | 17.7 | 0.00 | 0.00 | 0.00 | 65 | 1006.1 |
| 20260509171536 | 18 | 286 | 4.8 | 12.9 | 0.00 | 0.00 | 0.00 | 65 | 1006.2 |
| 20260509170023 | 18 | 273 | 3.2 | 14.5 | 0.00 | 0.00 | 0.00 | 66 | 1006.1 |
| 20260509164521 | 17 | 290 | 6.4 | 20.9 | 0.00 | 0.00 | 0.00 | 64 | 1006.2 |
| 20260509163017 | 16 | 236 | 3.2 | 17.7 | 0.00 | 0.00 | 0.00 | 67 | 1006.4 |
| 20260509161514 | 17 | 352 | 8.0 | 16.1 | 0.00 | 0.00 | 0.00 | 63 | 1006.5 |
| 20260509160016 | 18 | 291 | 3.2 | 9.7 | 0.00 | 0.00 | 0.00 | 63 | 1006.5 |
| 20260509154531 | 17 | 318 | 1.6 | 14.5 | 0.00 | 0.00 | 0.00 | 62 | 1006.6 |
| 20260509153025 | 16 | 306 | 4.8 | 11.3 | 0.00 | 0.00 | 0.00 | 65 | 1006.6 |
| 20260509151522 | 17 | 311 | 1.6 | 14.5 | 0.00 | 0.00 | 0.00 | 65 | 1006.7 |
| 20260509150020 | 15 | 276 | 4.8 | 11.3 | 0.00 | 0.00 | 0.00 | 68 | 1006.7 |
| 20260509144519 | 15 | 337 | 6.4 | 16.1 | 0.00 | 0.00 | 0.00 | 71 | 1006.8 |
| 20260509143019 | 15 | 213 | 3.2 | 6.4 | 0.00 | 0.00 | 0.00 | 73 | 1006.9 |
| 20260509141535 | 14 | 304 | 4.8 | 12.9 | 0.00 | 0.00 | 0.00 | 73 | 1007.0 |
| 20260509140028 | 13 | 317 | 3.2 | 9.7 | 0.00 | 0.00 | 0.00 | 75 | 1007.1 |
| 20260509134526 | 13 | 286 | 3.2 | 9.7 | 0.00 | 0.00 | 0.00 | 76 | 1007.2 |
| 20260509133025 | 13 | 257 | 6.4 | 17.7 | 0.00 | 0.00 | 0.00 | 77 | 1007.3 |
| 20260509131524 | 13 | 287 | 6.4 | 16.1 | 0.00 | 0.03 | 0.00 | 77 | 1007.4 |
| 20260509130026 | 12 | 257 | 4.8 | 12.9 | 0.00 | 0.03 | 0.00 | 78 | 1007.4 |
| 20260509124532 | 12 | 259 | 4.8 | 0.0 | 0.00 | 0.03 | 0.00 | 79 | 1007.5 |
| 20260509121527 | 11 | 246 | 1.6 | 6.4 | 0.00 | 0.05 | 0.00 | 82 | 1007.7 |
| 20260509120021 | 11 | 282 | 0.0 | 3.2 | 0.00 | 0.05 | 0.00 | 84 | 1007.8 |
| 20260509114526 | 10 | 304 | 0.0 | 1.6 | 0.00 | 0.05 | 0.00 | 85 | 1007.7 |
| 20260509113024 | 8 | 304 | 0.0 | 3.2 | 0.00 | 0.08 | 0.00 | 86 | 1007.7 |
| 20260509111519 | 7 | 304 | 0.0 | 0.0 | 0.00 | 0.15 | 0.00 | 86 | 1007.7 |
| 20260509110010 | 7 | 304 | 0.0 | 0.0 | 0.00 | 0.18 | 0.00 | 87 | 1007.9 |
| 20260509104524 | 6 | 304 | 0.0 | 0.0 | 0.00 | 0.18 | 0.00 | 86 | 1007.8 |
| 20260509103007 | 6 | 304 | 0.0 | 0.0 | 0.00 | 0.20 | 0.00 | 86 | 1007.7 |
| 20260509101505 | 5 | 304 | 0.0 | 0.0 | 0.00 | 0.23 | 0.00 | 87 | 1007.8 |
| 20260509100038 | 5 | 304 | 0.0 | 0.0 | 0.00 | 0.23 | 0.00 | 86 | 1007.7 |
| 20260509094516 | 5 | 304 | 0.0 | 0.0 | 0.00 | 0.23 | 0.00 | 85 | 1007.6 |
| 20260509093020 | 5 | 304 | 0.0 | 0.0 | 0.00 | 0.23 | 0.00 | 84 | 1007.7 |
| 20260509091509 | 5 | 304 | 0.0 | 0.0 | 0.00 | 0.23 | 0.00 | 83 | 1007.7 |
| 20260509090008 | 5 | 304 | 0.0 | 0.0 | 0.00 | 0.23 | 0.00 | 83 | 1007.7 |
| 20260509084515 | 5 | 304 | 0.0 | 0.0 | 0.00 | 0.23 | 0.00 | 81 | 1007.8 |
| 20260509083009 | 6 | 304 | 0.0 | 0.0 | 0.00 | 0.23 | 0.00 | 79 | 1007.9 |
| 20260509081510 | 6 | 304 | 0.0 | 0.0 | 0.00 | 0.23 | 0.00 | 79 | 1008.0 |
| 20260509080010 | 6 | 304 | 0.0 | 0.0 | 0.00 | 0.23 | 0.00 | 78 | 1008.0 |
| 20260509074521 | 5 | 304 | 0.0 | 0.0 | 0.00 | 0.23 | 0.00 | 77 | 1008.3 |
| 20260509073015 | 5 | 304 | 0.0 | 3.2 | 0.00 | 0.23 | 0.00 | 76 | 1008.4 |
| 20260509071518 | 5 | 304 | 0.0 | 3.2 | 0.00 | 0.23 | 0.00 | 75 | 1008.5 |
| 20260509070009 | 5 | 304 | 0.0 | 1.6 | 0.00 | 0.23 | 0.00 | 74 | 1008.5 |
| 20260509064528 | 5 | 304 | 0.0 | 0.0 | 0.00 | 0.23 | 0.00 | 73 | 1008.7 |
| 20260509063023 | 5 | 304 | 0.0 | 3.2 | 0.00 | 0.23 | 0.00 | 73 | 1008.8 |
| 20260509061525 | 5 | 304 | 0.0 | 3.2 | 0.00 | 0.23 | 0.00 | 72 | 1009.1 |
| 20260509060020 | 5 | 304 | 0.0 | 3.2 | 0.00 | 0.23 | 0.00 | 73 | 1009.3 |
| 20260509054522 | 5 | 304 | 0.0 | 3.2 | 0.00 | 0.23 | 0.00 | 72 | 1009.5 |
| 20260509053013 | 5 | 304 | 0.0 | 3.2 | 0.00 | 0.23 | 0.00 | 73 | 1009.7 |
| 20260509051533 | 5 | 304 | 0.0 | 0.0 | 0.00 | 0.23 | 0.00 | 72 | 1009.9 |
| 20260509050030 | 5 | 304 | 0.0 | 3.2 | 0.00 | 0.23 | 0.00 | 71 | 1010.0 |
| 20260509044540 | 6 | 304 | 0.0 | 3.2 | 0.00 | 0.23 | 0.00 | 69 | 1010.1 |
| 20260509043022 | 6 | 304 | 0.0 | 1.6 | 0.00 | 0.23 | 0.00 | 70 | 1010.1 |
| 20260509041522 | 6 | 304 | 0.0 | 3.2 | 0.00 | 0.23 | 0.00 | 69 | 1010.4 |
| 20260509040019 | 5 | 304 | 0.0 | 3.2 | 0.00 | 0.23 | 0.00 | 71 | 1010.4 |
| 20260509034516 | 5 | 304 | 0.0 | 1.6 | 0.00 | 0.23 | 0.23 | 70 | 1010.6 |
| 20260509033028 | 5 | 304 | 0.0 | 1.6 | 0.00 | 0.23 | 0.23 | 70 | 1010.8 |
| 20260509031527 | 5 | 304 | 0.0 | 0.0 | 0.00 | 0.23 | 0.23 | 68 | 1010.8 |
| 20260509030030 | 6 | 304 | 0.0 | 0.0 | 0.00 | 0.23 | 0.23 | 68 | 1010.9 |
| 20260509024522 | 6 | 304 | 0.0 | 0.0 | 0.00 | 0.23 | 0.23 | 65 | 1010.9 |
| 20260509023019 | 6 | 304 | 0.0 | 0.0 | 0.00 | 0.23 | 0.23 | 62 | 1010.9 |
| 20260509021519 | 7 | 304 | 0.0 | 0.0 | 0.00 | 0.23 | 0.23 | 58 | 1010.9 |
| 20260509020008 | 7 | 304 | 0.0 | 0.0 | 0.00 | 0.25 | 0.23 | 56 | 1010.8 |
| 20260509014508 | 8 | 304 | 0.0 | 0.0 | 0.00 | 0.25 | 0.23 | 52 | 1010.6 |
| 20260509013023 | 8 | 304 | 0.0 | 3.2 | 0.00 | 0.25 | 0.23 | 55 | 1010.5 |
| 20260509011504 | 8 | 304 | 0.0 | 0.0 | 0.00 | 0.25 | 0.23 | 50 | 1010.4 |
| 20260509010007 | 9 | 304 | 0.0 | 0.0 | 0.00 | 0.25 | 0.23 | 47 | 1010.4 |
| 20260509004524 | 10 | 304 | 0.0 | 3.2 | 0.00 | 0.25 | 0.23 | 44 | 1010.4 |
| 20260509003021 | 10 | 304 | 0.0 | 3.2 | 0.00 | 0.25 | 0.23 | 40 | 1010.3 |
| 20260509001513 | 11 | 315 | 0.0 | 6.4 | 0.00 | 0.25 | 0.23 | 40 | 1010.3 |